Regional Weather Roundup
Issued by NWS

Home | Current Version | Previous Version | Graphics & Text | Print | Product List | Glossary On
Versions: 1 2 3 4 5 6 7 8 9 10 11 12 13 14 15 16 17 18 19 20 21 22 23 24 25 26 27 28 29 30 31 32 33 34 35 36 37 38 39 40 41 42 43 44 45 46 47 48 49 50
000
ASUS43 KLOT 211308
RWRIL

ILLINOIS REGIONAL WEATHER ROUNDUP
NATIONAL WEATHER SERVICE CHICAGO/ROMEOVILLE IL
700 AM CST SAT JAN 21 2017

NOTE: "FAIR" INDICATES FEW OR NO CLOUDS BELOW 12,000 FEET WITH NO
SIGNIFICANT WEATHER AND/OR OBSTRUCTIONS TO VISIBILITY.

* THESE STATIONS ARE NOT UNDER NWS QUALITY CONTROL. THEY ALSO MAY NOT
  REPORT WEATHER SUCH AS PRECIPITATION OR FOG.

ILZ001-002-007-009-015-016-024-211400-
NORTHWEST ILLINOIS

CITY           SKY/WX    TMP DP  RH WIND       PRES   REMARKS
MOLINE         CLEAR     44  42  93 S6        29.42S
STERLING*      FOG       42  42 100 SE6       29.46F VSB 1/4
SAVANNA*       FOG       44  44  99 SE3       29.44F VSB 1/2
$$

ILZ003-004-008-010-011-017-018-211400-
NORTH CENTRAL ILLINOIS

CITY           SKY/WX    TMP DP  RH WIND       PRES   REMARKS
ROCKFORD       FOG       46  44  93 SE10      29.49F VSB 1
FREEPORT*      FOG       43  43 100 S6        29.47S VSB 1/2
ROCHELLE*      FOG       43  43 100 S9        29.49S VSB 1/4
DE KALB*       HVY SNOW  44  44 100 SE9       29.51S VSB<1/4
$$

ILZ005-006-012>014-019>023-211400-
NORTHEAST ILLINOIS

CITY           SKY/WX    TMP DP  RH WIND       PRES   REMARKS
CHICAGO-OHARE  CLOUDY    48  47  96 S9        29.52F FOG
CHICAGO-MIDWAY MOCLDY    48  47  96 S10       29.54S FOG
AURORA         FOG       47  45  93 SE10      29.51S VSB 1/4
LANSING*       MOCLDY    47  47 100 SE7       29.56S FOG
JOLIET*        FOG       43  43 100 E6        29.53S VSB<1/4
WAUKEGAN       FOG       41  40  96 SE3       29.52F VSB<1/4
DUPAGE AIRPORT FOG       48  45  89 SE10      29.51S VSB 1/2
KANKAKEE*      CLEAR     48  47  97 S10       29.56S
WHEELING       CLOUDY    47  46  97 S8        29.53F FOG
MORRIS*        FOG       44  44  98 SE7       29.51S VSB 1/4
NORTHERLY ISL    N/A     40  39  97 SE3         N/A
$$

LMZ740>746-211400-
SOUTHERN LAKE MICHIGAN

STATION/POSITION SKY/WX   TEMP    WIND        PRES    VSBY  WAVE
                          AIR SEA DIR/SP/G                  HT/PER
                          (F)     (DEG/KT/KT) (MB)    (MI)  (FT/S)
HARRISON CRIB              45     160/ 12/ 14   N/A
BURNHAM HARBOR             42     170/  2/  4   N/A
CALUMET HARBOR             49     150/  7/ 10 1000.0F
BURNS HARBOR               51     170/ 11/ 17 1002.0S
$$

ILZ025>027-034>036-040-047-049-050-058-095>099-211400-
WEST-CENTRAL ILLINOIS

CITY           SKY/WX    TMP DP  RH WIND       PRES   REMARKS
QUINCY         CLEAR     47  41  80 S12       29.45R
GALESBURG*     CLEAR     42  42 100 SE6       29.44S
MACOMB*        CLEAR     44  44 100 S10       29.47S
JACKSONVILLE*  CLEAR     49  45  86 S13G18    29.49F
PITTSFIELD*    CLEAR     48  44  84 S8        29.49R
$$

ILZ028>032-037-038-041>044-048-051>054-059>061-211400-
CENTRAL ILLINOIS

CITY           SKY/WX    TMP DP  RH WIND       PRES   REMARKS
PONTIAC        CLEAR     46  46 100 S12       29.53S FOG
BLOOMINGTON    CLEAR     46  44  93 S14       29.53S
DECATUR        CLEAR     48  47  96 S13       29.54F
PEORIA         CLEAR     47  46  97 S13       29.49R
LACON*         CLEAR     46  45  98 S8        29.48S
LINCOLN*       CLEAR     48  47  97 S12       29.52S
SPRINGFIELD    CLEAR     50  46  86 S13       29.52S
TAYLORVILLE    CLEAR     49  46  90 S10       29.53F
$$

ILZ033-039-045-046-055>057-062-063-211400-
EAST-CENTRAL ILLINOIS

CITY           SKY/WX    TMP DP  RH WIND       PRES   REMARKS
CHAMPAIGN      CLEAR     47  44  90 S12       29.56S
RANTOUL*       PTCLDY    46  46 100 SE8       29.56F FOG
MATTOON        PTCLDY    49  47  93 S10       29.57F
PARIS*         PTCLDY    46  46 100 SE8       29.60F FOG
$$

ILZ079-100>102-211400-
SOUTHWEST ILLINOIS

CITY           SKY/WX    TMP DP  RH WIND       PRES   REMARKS
ALTON          PTCLDY    50  45  81 S13       29.54S
BELLEVILLE     CLEAR     49  49  99 CALM      29.54F
CAHOKIA*       CLEAR     51  45  79 S6        29.53F
SPARTA*        MOCLDY    53  48  84 S13       29.58F
$$

ILZ064>066-069>071-074>076-080>082-084>086-088>090-092>094-211400-
SOUTH-CENTRAL ILLINOIS

CITY           SKY/WX    TMP DP  RH WIND       PRES   REMARKS
CARBONDALE     MOCLDY    51  51 100 S5        29.61R
CAIRO*         CLOUDY    55  52  88 S7        29.63R
EFFINGHAM*     MOCLDY    48  48 100 SE7       29.60S
MARION         CLOUDY    54  52  94 S5        29.62F
MT. VERNON     CLOUDY    51  49  92 S5        29.61S
CENTRALIA*     CLOUDY    52  50  92 S13       29.58R
SALEM*         PTCLDY    54  49  82 S9        29.58S
METROPOLIS*    CLOUDY    49  49  99 CALM      29.65R FOG
$$

ILZ067-068-072-073-078-083-087-091-211400-
SOUTHEAST ILLINOIS

CITY           SKY/WX    TMP DP  RH WIND       PRES   REMARKS
LAWRENCEVILLE  CLOUDY    49  49 100 S10       29.63F
FLORA*         MOCLDY    51  49  93 S7        29.60F
FAIRFIELD*     CLOUDY    51  49  94 S5        29.61S
HARRISBURG*    CLOUDY    50  49  97 S3        29.63R
ROBINSON*      CLOUDY    48  48  99 S6        29.63S
CARMI*         CLOUDY    49  49 100 S7        29.63R
$$

ABBREVIATIONS USED IN REMARKS
   TC - TEMPERATURE IN CELSIUS
  WCI - WIND CHILL INDEX
   HX - HEAT INDEX
  VSB - VISIBILITY
$$





USA.gov is the U.S. government's official web portal to all federal, state and local government web resources and services.